COSMOS 2520

Last updated on Thu Nov 21 2024 00:02:43 GMT+0000 (Coordinated Universal Time)

1 42907U 17046A 24324.58947331 .00000139 00000+0 00000+0 0 9996 2 42907 0.0279 110.8227 0000560 162.8205 42.6863 1.00268719 26638
UTC large
Height (km)
Speed (km/s)
/
Latitude / Longitude
Inclination (degrees)
Orbital Period (minutes)
Azimuth
Elevation
Range (km)
Doppler Factor

Next 0 passes for location: London (51.5072 / 0.1276)

Sorry there are no passes over London.